Location: Radomski Observatory
(40.2854°N, 79.5145°W)
Time: 20:34:16
(UTC-04:00)

Daily predictions for brighter satellites

Satellite Brightness Start Highest point End
(mag) Time Altitude Azimuth Time Altitude Azimuth Time Altitude Azimuth
Envisat 4.0 20:56:21 10° SE 21:00:40 29° ENE 21:05:02 10° N
Cosmos 1844 Rocket 2.9 20:55:48 10° SSW 21:01:27 81° WNW 21:07:08 10° NNE
Meteor 2-6 Rocket 4.3 20:57:10 10° N 21:03:06 73° E 21:08:52 10° SSE
Cosmos 1825 3.1 21:00:03 10° SSE 21:03:21 29° E 21:06:42 10° NNE
FENGYUN 3A 3.9 20:58:17 10° S 21:03:41 80° WSW 21:09:05 10° NNW
Cosmos 2278 Rocket 2.3 21:00:47 10° S 21:06:17 54° ESE 21:11:48 10° NNE
Atlas Centaur 2 3.3 21:04:43 10° SW 21:06:33 13° SSW 21:08:20 10° SSE
COSMOS 2406 4.2 21:02:43 10° NW 21:08:13 48° WSW 21:13:38 10° S
ERS-1 Rocket 3.3 21:04:47 10° SE 21:09:39 51° ENE 21:14:32 10° N
Cosmos 1844 3.9 21:07:15 10° SSW 21:13:01 87° WNW 21:18:52 10° NNE
Timation 2 Rocket 4.5 21:07:49 10° NNW 21:13:27 41° ENE 21:19:04 10° SE
ISS -2.3 21:10:27 10° WSW 21:13:36 49° NNW 21:16:48 10° NE
H-2A R/B 3.0 21:10:10 10° SE 21:13:56 31° ENE 21:17:39 10° N
Cosmos 1140 Rocket 4.0 21:10:54 10° N 21:15:46 41° ENE 21:20:39 10° SE
APEX 4.1 21:13:53 10° S 21:17:27 35° ESE 21:21:59 10° NE
Okean 3 4.1 21:14:03 10° N 21:18:04 38° ENE 21:22:00 10° SSE
Cosmos 407 Rocket 3.8 21:12:59 10° NNW 21:18:15 71° WSW 21:23:33 10° S
Cosmos 2154 Rocket 4.0 21:12:24 10° S 21:18:31 63° E 21:24:38 10° NNE
Cosmos 1939 Rocket 3.3 21:15:26 10° SE 21:19:06 42° ENE 21:22:51 10° N
Abrixas 3.4 21:19:44 10° SSW 21:22:24 28° SE 21:25:03 10° E
COSMOS 2487 2.6 21:18:55 10° N 21:22:30 59° ENE 21:25:58 10° SSE
Cosmos 1238 Rocket 3.1 21:19:16 10° N 21:22:36 43° E 21:26:34 10° SSE
YAOGAN 11 4.2 21:18:38 10° SSE 21:23:10 84° ENE 21:27:46 10° NNW
Cosmos 2082 Rocket 3.2 21:21:34 10° N 21:26:36 31° ENE 21:30:58 13° ESE
SPOT 5 3.8 21:23:32 11° SE 21:28:16 38° ENE 21:33:12 10° N
Cosmos 1452 Rocket 3.9 21:28:23 10° SSW 21:33:37 71° WNW 21:38:55 10° NNE
Lacrosse 5 3.3 21:34:17 10° SSE 21:37:23 16° ESE 21:40:28 10° E
Cosmos 1184 Rocket 2.7 21:34:53 10° S 21:38:12 73° E 21:41:33 10° NNE
Intercosmos 25 3.7 21:38:00 15° SSE 21:40:22 31° E 21:43:13 10° NNE
H-2A R/B 4.0 21:40:12 10° E 21:42:59 14° ENE 21:45:44 10° NNE
Cosmos 2297 3.8 21:39:24 10° S 21:44:57 57° ESE 21:50:34 10° NNE
Meteor 2-13 Rocket 4.4 21:45:39 10° S 21:51:43 68° E 21:57:50 10° NNE
Okean 2 Rocket 3.0 21:48:26 10° S 21:52:50 76° E 21:57:15 10° N
Cosmos 1606 3.9 21:50:50 10° NNW 21:54:34 42° W 21:58:15 10° SSW
BREEZE-M DEB (TANK) 4.2 21:54:47 10° NW 21:56:02 14° N 21:57:27 10° NNE
Cosmos 1782 Rocket 3.7 21:53:14 10° S 21:57:41 77° W 22:02:11 10° N
SPOT 1/Viking Rocket 4.2 21:55:17 21° SE 21:58:19 40° ENE 22:03:11 10° N
EO 1 Delta rocket 4.2 21:52:53 10° N 21:58:43 84° W 22:03:32 10° SSW
USA 229 DEB 4.0 21:55:11 10° NNW 22:02:13 60° NE 22:07:00 22° SE
USA 229 4.0 21:55:17 10° NNW 22:02:19 60° NE 22:07:06 22° SE
Cosmos 1242 Rocket 2.5 21:58:49 10° N 22:02:31 90° ENE 22:04:46 23° S
Cosmos 1850 Rocket 4.0 22:00:27 10° NNW 22:05:49 88° ENE 22:09:25 21° SSE
COS B Rocket 4.1 22:03:32 10° N 22:07:16 46° W 22:10:34 10° SSW
Elektron 3 4.1 22:06:26 10° NW 22:09:22 78° SW 22:11:15 29° SSE
ARGOS 3.5 22:09:06 25° SE 22:11:51 47° ENE 22:16:59 10° N
YAOGAN 6 2.5 22:10:46 36° SE 22:12:01 66° ENE 22:15:31 10° N
Cosmos 2369 Rocket 4.2 22:14:07 10° E 22:14:07 10° E 22:14:19 10° ENE
Cosmos 1975 Rocket 3.5 22:08:26 10° NNW 22:12:42 59° W 22:16:09 15° S
GPS 2-05 Rocket1 3.7 22:09:54 10° WSW 22:13:21 35° S 22:13:49 34° S
Lacrosse 5 rocket 1.6 22:09:56 10° SSW 22:13:38 38° SE 22:17:11 10° ENE
DNEPR-1 R/B 4.1 22:08:37 10° NW 22:13:45 58° WSW 22:16:17 24° S
OAO 3 Rocket 3.6 22:09:04 10° WSW 22:13:45 43° S 22:15:30 31° SE
Cosmos 2218 Rocket 4.0 22:08:10 13° S 22:13:56 67° E 22:20:17 10° NNE
Cosmos 1408 4.5 22:11:56 10° SW 22:15:12 30° WNW 22:18:27 10° NNW
PSLV R/B 3.0 22:16:18 50° S 22:16:58 85° W 22:19:56 10° NNW
SL-08 RB Rocket 4.3 22:15:38 30° ESE 22:17:17 41° ENE 22:21:40 10° N
CZ-4 R/B 4.3 22:14:39 10° NNE 22:19:01 38° E 22:20:06 33° SE
Cosmos 1959 Rocket 4.4 22:16:51 14° S 22:22:11 77° E 22:28:17 10° N
CZ-4 SHROUD 3.3 22:23:32 49° SSW 22:24:12 71° WSW 22:27:18 10° NNW
Gbstr 26 Del rocket 4.2 22:20:12 10° NW 22:25:08 40° NNE 22:27:30 22° E
AVUM R/B 3.5 22:22:11 10° NNW 22:25:40 58° ENE 22:26:05 53° E
Cosmos 1536 Rocket 3.7 22:21:16 10° N 22:25:42 57° E 22:27:03 40° SE
Cosmos 1727 Rocket 4.1 22:21:22 10° N 22:27:29 61° E 22:30:27 31° SSE
Cosmos 1741 Rocket 4.4 22:22:51 10° NNW 22:27:59 60° WSW 22:31:03 24° S
Cosmos 1331 Rocket 4.1 22:27:09 32° SSE 22:29:08 49° ESE 22:34:06 10° NNE
Landsat 7 4.5 22:28:19 33° ESE 22:29:35 39° ENE 22:34:01 10° N
NOSS 8 (H) 4.3 22:30:35 39° SSW 22:31:45 75° ESE 22:35:28 10° NE
MetOp-A 4.4 22:31:18 22° S 22:34:42 63° WSW 22:40:01 10° NNW
CZ-4C R/B 4.0 22:36:09 37° E 22:36:31 38° ENE 22:40:24 10° N
Cosmos 1110 Rocket 3.9 22:35:43 26° S 22:38:42 71° ESE 22:43:53 10° NNE
Envisat 4.5 22:35:07 10° SSW 22:39:35 32° W 22:44:08 10° NNW
Meteor 1-20 Rocket 4.1 22:39:25 35° SSE 22:41:46 66° E 22:47:14 10° NNE
Cosmos 1833 Rocket 2.6 22:37:15 10° NNW 22:42:53 83° WSW 22:45:06 39° SSE
SL-8 Rocket 4.5 22:38:59 10° SSW 22:45:09 59° W 22:51:18 10° N
Terra 2.4 22:44:32 37° E 22:45:17 39° ENE 22:49:43 10° N
USA 245 3.6 22:46:35 48° SSW 22:47:19 59° W 22:51:36 10° NNW
Cosmos 1339 Rocket 4.4 22:41:22 10° N 22:47:33 73° E 22:50:00 39° SSE
NOSS 3-1 (C) 4.5 22:41:40 10° NNW 22:48:59 52° NE 22:53:00 29° ESE
H-2A R/B 4.2 22:46:49 11° SW 22:49:58 21° W 22:53:12 10° NW
ISS -0.2 22:48:46 10° NW 22:50:39 14° NNW 22:52:32 10° NNE
DMSP B5D2-2 4.4 22:47:53 10° NNE 22:52:53 45° E 22:53:13 44° ESE
Timation 1 Rocket 4.4 22:51:20 10° SSW 22:57:20 77° WNW 23:03:22 10° NNE
Abrixas 3.9 22:55:26 10° W 22:58:19 38° NNW 22:58:22 38° NNW
USA 234 3.8 22:53:12 10° ENE 22:58:07 34° ESE 22:58:07 34° ESE
Meteor 1-25 Rocket 4.5 22:58:34 25° SSW 23:02:08 71° W 23:07:57 10° N
Cosmos 1300 Rocket 3.4 23:04:46 78° SSE 23:05:02 84° E 23:09:31 10° N
CZ-4B R/B 4.1 23:00:37 10° N 23:05:23 52° WNW 23:08:19 22° SW
Spot 4 4.2 23:06:34 48° E 23:06:53 49° ENE 23:11:33 10° N
Cosmos 1486 Rocket 4.0 23:03:12 10° NNW 23:08:33 71° ENE 23:09:19 61° ESE
Cosmos 2082 Rocket 3.2 23:05:31 10° NW 23:10:43 38° WSW 23:12:49 28° SSW
Okean 1 3.4 23:06:41 10° N 23:10:39 78° WNW 23:10:39 78° WNW
Cosmos 2285 Rocket 4.4 23:12:34 42° ESE 23:12:44 43° E 23:18:41 10° NNE
Okean 1 Rocket 2.9 23:13:53 88° S 23:13:56 89° SE 23:18:25 10° N
Cosmos 1812 3.3 23:11:32 10° NNW 23:15:11 53° W 23:15:11 53° W
Lacrosse 5 1.9 23:14:40 10° SW 23:19:46 78° NW 23:24:53 10° NE
Genesis I 3.7 23:21:06 58° N 23:21:06 58° N 23:24:30 10° NNE
H-2A R/B 2.1 23:20:50 61° S 23:21:44 77° WSW 23:27:03 10° NNW
Meteor 2-4 Rocket 4.1 23:20:55 10° N 23:26:10 45° ENE 23:26:19 44° E
Cosmos 1302 Rocket 4.1 23:32:20 57° SW 23:33:19 73° WNW 23:38:38 10° NNE
Okean 1-7 Rocket 3.9 23:30:45 10° NNW 23:34:56 61° WNW 23:34:56 61° WNW
Cosmos 1535 Rocket 4.4 23:37:20 62° S 23:38:30 86° E 23:44:56 10° N
Meteor 2-14 Rocket 4.3 23:42:33 67° ESE 23:42:51 68° E 23:48:58 10° NNE
Cosmos 1633 4.5 23:44:51 27° NNE 23:44:51 27° NNE 23:46:40 10° NNE
Meteor 1-13 Rocket 4.4 23:37:04 10° NNW 23:42:59 69° W 23:43:51 60° SW
ASTEX 1 3.5 23:39:20 10° N 23:44:16 68° W 23:44:25 68° W
Meteor 2-15 4.4 23:39:44 10° N 23:45:50 67° E 23:46:10 65° E
Iridium 4 Rocket 3.7 23:43:12 10° N 23:49:09 82° E 23:49:23 80° SE
Lacrosse 5 rocket 3.3 23:49:40 10° W 23:52:55 25° NW 23:56:05 10° NNE
